Other Surface Observations
Issued by NWS Charleston, SC

Current Version | Previous Version | Text Only | Print | Product List | Glossary On
Versions: 1 2 3 4 5 6 7 8 9 10 11 12 13 14 15 16 17 18 19 20 21 22 23 24 25 26 27 28 29 30 31 32 33 34 35 36 37 38 39 40 41 42 43 44 45 46 47 48 49 50
291
SXUS52 KCHS 241527
OSOCHS

MARINE OBSERVATIONS
NATIONAL WEATHER SERVICE CHARLESTON SC
1100 AM EDT MON APR 24 2017

...DOWNTOWN CHARLESTON AND HARBOR...

CITY           SKY/WX    TMP DP  RH WIND       PRES   REMARKS
WATERFRONT PRK   N/A     70  67  90 S7        29.67F

...LAKE MOULTRIE...

CITY           SKY/WX    TMP DP  RH WIND       PRES   REMARKS
PINOPOLIS      NOT AVBL

...LAKE AND SUPPLEMENTAL COASTAL OBSERVATIONS...

STATION/POSITION TIME  TEMP    WIND        PRES    WAVE   SWELL
                       AIR SEA DIR/SP/G            HT/PER HT/PER/DIR
                 (UTC) (F)     (DEG/KT/KT) (MB)    (FT/S) (FT/S/D)
FORT PULASKI     1500   70 74  270/ 10/ 15 1005.5
SAPELO ISLAND    1500   70     260/ 14     1006.0
WINYAH BAY       1445   72     140/  8     1006.0S
LAKE MURRAY      1520   59      10/  2/  5 1006.8F
ACE BASIN NERRS  1445   76     140/  1     1005.0S


...C-MAN AND BUOY OBSERVATIONS...

STATION/POSITION TIME  TEMP    WIND        PRES    WAVE   SWELL
                       AIR SEA DIR/SP/G            HT/PER HT/PER/DIR
                 (UTC) (F)     (DEG/KT/KT) (MB)    (FT/S) (FT/S/D)
BUOY 41004       1510   70 74  150/ 12/ 17 1005.5
BUOY 41008       1450   68 72  250/ 16/ 19 1005.3R   4/ 8   3/110/ 8
FOLLY BEACH CMAN 1500   72     150/ 18/ 20 1005.9S
CAPERS NS BUOY   1508   69 72  150/ 19/ 25 1005.0F
FRIPP NS BUOY    1508   72 73  220/ 10/ 14 1004.8F
5E ST. MARYS GA  1430      73                N/A     3/13   2/ 90/13


STATION/POSITION TIME  TEMP    WIND        PRES    WAVE   SWELL
                       AIR SEA DIR/SP/G            HT/PER HT/PER/DIR
                 (UTC) (F)     (DEG/KT/KT) (MB)    (FT/S) (FT/S/D)
FRYING PAN BUOY  1510   70 75  160/ 21/ 25 1007.5
BUOY 41025       1450   76 79  130/ 23/ 27 1011.1S   7/11   5/ 60/11
CAPE LOOKOUT NC  1500   67     140/ 12/ 13 1010.6S
BUOY 41002       1450   71 75  120/ 29/ 37 1009.2F   7/ 7   2/ 30/11
BUOY 41010       1510   75 78  270/ 12/ 14 1006.4
ST AUGUSTINE FL  1500   73 75  250/ 11/ 14 1007.7R

$$




USA.gov is the U.S. government's official web portal to all federal, state and local government web resources and services.